SCP
0 0 0 0 0 0 0 0 0 0 0 0 0 0 0 0 0 0 0 0 0 0 0 0 0 0 0 0 0 0 0 0 0 0 0 0 0 0 0 0 0 0 0
0 0 0 0 0 0 0 0 0 0 0 0 0 0 0 0 0 0 0 0 0 0 0 0 0 0 0 0 0 0 0 0 0 0 0 0 0 0 0 0 0 0 0
0 0 0 0 0 0 0 0 0 0 0 0 0 0 0 0 0 0 0 0 0 0 0 0 0 0 0 0 0 0 0 0 0 0 0 0 0 0 0 0 0 0 0
0 0 0 0 0 0 0 0 0 0 0 0 0 0 0 0 0 0 0 0 0 0 0 0 0 0 0 0 0 0 0 0 0 0 0 0 0 0 0 0 0 0 0
0 0 0 0 0 0 0 0 0 0 0 0 0 0 0 0 0 0 0 0 0 0 0 0 0 0 0 0 0 0 0 0 0 0 0 0 0 0 0 0 0 0 0
0 0 0 0 0 0 0 0 0 0 0 0 0 0 0 0 0 0 0 0 0 0 0 0 0 0 0 0 0 0 0 0 0 0 0 0 0 0 0 0 0 0 0
0 0 0 0 0 0 0 0 0 0 0 0 0 0 0 0 0 0 0 0 0 0 0 0 0 0 0 0 0 0 0 0 0 0 0 0 0 0 0 0 0 0 0
0 0 0 0 0 0 0 0 0 0 0 0 0 0 0 0 0 0 0 0 0 0 0 0 0 0 0 0 0 0 0 0 0 0 0 0 0 0 0 0 0 0 0
0 0 0 0 0 0 0 0 0 0 0 0 0 0 0 0 0 0 0 0 0 0 0 0 0 0 0 0 0 0 0 0 0 0 0 0 0 0 0 0 0 0 0
0 0 0 0 0 0 0 0 0 0 0 0 0 0 0 0 0 0 0 0 0 0 0 0 0 0 0 0 0 0 0 0 0 0 0 0 0 0 0 0 0 0 0
0 0 0 0 0 0 0 0 0 0 0 0 0 0 0 0 0 0 0 0 0 0 0 0 0 0 0 0 0 0 0 0 0 0 0 0 0 0 0 0 0 0 0
0 0 0 0 0 0 0 0 0 0 0 0 0 0 0 0 0 0 0 0 0 0 0 0 0 0 0 0 0 0 0 0 0 0 0 0 0 0 0 0 0 0 0
0 0 0 0 0 0 0 0 0 0 0 0 0 0 0 0 0 0 0 0 0 0 0 0 0 0 0 0 0 0 0 0 0 0 0 0 0 0 0 0 0 0 0
0 0 0 0 0 0 0 0 0 0 0 0 0 0 0 0 0 0 0 0 0 0 0 0 0 0 0 0 0 0 0 0 0 0 0 0 0 0 0 0 0 0 0
0 0 0 0 0 0 0 0 0 0 0 0 0 0 0 0 0 0 0 0 0 0 0 0 0 0 0 0 0 0 0 0 0 0 0 0 0 0 0 0 0 0 0
0 0 0 0 0 0 0 0 0 0 0 0 0 0 0 0 0 0 0 0 0 0 0 0 0 0 0 0 0 0 0 0 0 0 0 0 0 0 0 0 0 0 0
0 0 0 0 0 0 0 0 0 0 0 0 0 0 0 0 0 0 0 0 0 0 0 0 0 0 0 0 0 0 0 0 0 0 0 0 0 0 0 0 0 0 0
0 0 0 0 0 0 0 0 0 0 0 0 0 0 0 0 0 0 0 0 0 0 0 0 0 0 0 0 0 0 0 0 0 0 0 0 0 0 0 0 0 0 0
0 0 0 0 0 0 0 0 0 0 0 0 0 0 0 0 0 0 0 0 0 0 0 0 0 0 0 0 0 0 0 0 0 0 0 0 0 0 0 0 0 0 0
0 0 0 0 0 0 0 0 0 0 0 0 0 0 0 0 0 0 0 0 0 0 0 0 0 0 0 0 0 0 0 0 0 0 0 0 0 0 0 0 0 0 0
0 0 0 0 0 0 0 0 0 0 0 0 0 0 0 0 0 0 0 0 0 0 0 0 0 0 0 0 0 0 0 0 0 0 0 0 0 0 0 0 0 0 0
0 0 0 0 0 0 0 0 0 0 0 0 0 0 0 0 0 0 0 0 0 0 0 0 0 0 0 0 0 0 0 0 0 0 0 0 0 0 0 0 0 0 0
0 0 0 0 0 0 0 0 0 0 0 0 0 0 0 0 0 0 0 0 0 0 0 0 0 0 0 0 0 0 0 0 0 0 0 0 0 0 0 0 0 0 0
0 0 0 0 0 0 0 0 0 0 0 0 0 0 0 0 0 0 0 0 0 0 0 0 0 0 0 0 0 0 0 0 0 0 0 0 0 0 0 0 0 0 0
0 0 0 0 0 0 0 0 0 0 0 0 0 0 0 0 0 0 0 0 0 0 0 0 0 0 0 0 0 0 0 0 0 0 -0 -0 -0 0 0 0 0 0 0
0 0 0 0 0 0 0 0 0 0 0 0 0 0 0 0 0 0 0 0 0 0 0 0 0 0 0 0 0 0 0 0 0 0 -0 -0 -0 -0 -0 0 0 0 0
Wind_Speed
4 3 2 2 2 2 3 3 3 3 3 4 4 4 4 4 3 3 2 5 7 8 9 9 9 9 9 9 9 9 8 8 8 7 7 7 8 8 8 8 9 9 9
4 3 3 3 2 2 3 3 4 4 3 3 4 4 4 4 4 4 3 4 6 7 8 8 8 8 8 8 8 8 8 8 7 7 7 7 7 7 7 8 8 8 8
4 4 4 3 3 3 3 3 4 3 4 4 4 4 4 3 3 3 3 3 3 5 7 7 7 7 7 7 7 7 7 7 7 6 6 6 6 6 7 7 7 6 7
4 4 4 3 3 3 3 4 4 4 3 4 3 3 3 3 3 3 3 3 2 2 4 6 6 6 6 6 6 6 7 6 6 6 6 5 5 6 6 7 7 7 7
5 4 3 3 4 4 3 4 3 4 4 4 4 3 3 3 3 3 3 3 3 2 2 4 5 5 5 5 5 5 5 5 5 5 5 5 5 6 6 6 6 6 6
5 4 4 4 4 4 3 4 5 4 4 4 5 4 3 3 3 3 2 2 2 3 2 3 2 3 4 4 4 4 4 5 5 5 5 5 5 5 5 5 5 5 6
5 4 4 4 4 4 4 5 5 5 3 4 4 4 3 4 3 2 2 2 2 2 2 3 2 2 2 3 3 3 4 3 4 4 4 5 4 4 4 4 5 5 5
4 4 5 4 4 4 5 5 5 4 3 3 4 4 2 1 2 2 2 2 2 2 2 2 2 2 2 1 2 4 3 3 2 3 4 4 3 3 3 4 4 4 4
4 4 5 5 5 4 5 5 5 5 4 2 2 4 4 3 1 1 1 1 1 1 1 1 2 2 2 2 1 3 4 3 2 2 3 3 3 3 3 3 4 4 4
4 4 5 5 5 4 5 5 4 3 5 4 2 1 2 4 4 2 0 1 1 1 1 1 1 2 2 1 2 3 3 3 3 2 2 2 2 2 2 3 3 3 3
3 4 5 4 5 4 5 5 4 3 3 4 3 2 2 2 2 3 2 1 0 0 0 1 1 1 1 1 1 2 2 2 2 3 3 3 2 1 2 3 3 3 3
3 3 4 4 4 4 5 5 5 5 3 3 2 2 3 3 3 3 3 2 1 1 0 0 1 1 1 1 1 2 2 2 2 2 2 3 3 2 1 2 2 2 2
3 4 3 4 4 4 5 5 5 5 4 4 3 2 2 2 3 3 4 2 1 1 0 0 1 1 1 1 1 2 1 2 2 2 1 2 2 3 2 1 1 1 2
4 5 4 4 4 4 4 4 4 4 4 4 4 3 2 2 2 3 4 4 2 0 1 2 1 1 1 1 1 2 1 2 2 1 1 2 2 3 3 2 2 1 1
4 5 5 4 4 4 4 4 4 4 4 4 4 4 2 2 2 2 3 4 5 3 3 3 1 1 1 1 1 1 1 1 1 1 2 2 2 3 3 3 2 2 1
4 5 5 4 4 4 4 4 3 4 4 4 3 4 3 2 2 2 3 2 3 4 3 3 2 1 1 1 2 1 1 2 2 2 2 2 2 2 3 3 2 2 1
5 6 6 5 5 5 4 4 4 4 5 4 3 4 4 3 3 2 2 2 2 3 3 1 1 1 1 2 1 0 0 0 1 1 1 2 2 2 2 2 2 1 1
5 5 5 5 5 5 5 5 5 5 5 5 5 4 4 3 4 3 3 3 3 3 3 3 2 1 2 2 2 1 0 0 0 0 1 1 1 1 1 1 1 1 1
4 5 5 6 6 5 5 6 5 5 5 5 5 5 5 5 5 3 4 3 3 3 3 3 2 1 1 1 1 0 0 0 1 0 0 0 1 1 0 1 1 2 1
4 5 5 5 5 5 5 5 5 5 5 4 5 5 5 6 6 5 4 4 4 3 3 3 3 2 1 1 2 1 1 1 1 1 1 1 1 1 1 1 1 1 1
3 4 4 4 5 5 5 5 5 5 5 4 4 4 5 5 6 6 5 5 5 4 4 3 3 2 2 2 3 2 2 1 1 1 0 1 1 1 1 1 1 1 2
3 3 4 4 4 4 5 7 6 5 5 5 4 4 3 4 5 6 6 6 7 6 6 5 3 4 4 3 3 3 2 2 2 1 1 1 0 1 1 1 2 2 2
2 3 3 3 4 4 5 6 7 5 5 5 5 4 3 3 4 3 4 4 4 5 6 6 6 5 5 5 5 4 4 3 3 2 1 1 1 2 2 2 3 3 3
3 3 3 3 4 4 5 6 6 5 4 5 5 5 5 4 4 5 4 3 2 2 3 3 4 4 4 4 5 5 4 2 1 0 1 2 1 2 2 2 3 3 3
2 2 3 3 3 3 4 5 6 4 4 4 3 4 5 5 6 7 5 5 3 2 1 3 3 3 4 5 5 4 3 2 1 1 1 2 1 1 2 2 3 3 3
3 2 2 2 3 3 4 5 5 3 4 3 3 3 5 5 6 7 6 6 5 3 3 3 2 2 2 3 4 4 4 3 2 2 2 2 1 0 2 2 2 2 2
Wind_Direction
146 147 146 141 139 134 134 129 123 120 119 118 114 108 108 107 101 91 86 92 103 106 106 107 110 108 106 100 97 95 95 97 95 93 90 88 86 81 77 74 73 71 70
152 154 155 152 149 146 145 138 132 123 117 112 108 109 111 112 101 95 89 85 91 100 104 106 108 110 108 103 98 95 92 90 91 91 90 88 85 80 77 75 73 70 68
154 154 158 158 157 145 133 123 116 106 105 100 96 102 106 105 106 98 91 86 86 89 98 101 104 106 107 105 103 101 96 92 91 91 94 94 92 87 82 77 73 71 67
154 151 155 160 155 142 136 131 124 112 105 102 96 93 95 96 98 99 92 90 85 84 92 96 97 99 102 106 105 103 100 96 93 92 93 99 103 97 90 81 74 69 67
156 153 155 156 150 142 140 138 123 125 122 114 106 93 82 85 90 95 94 93 91 89 81 86 88 90 92 95 99 105 105 100 95 93 94 98 102 101 93 84 75 68 67
156 150 153 153 146 142 140 137 131 117 122 123 105 85 67 64 72 81 93 94 91 91 88 81 77 75 81 91 90 90 99 99 97 96 93 93 98 98 95 88 79 74 69
157 152 152 154 152 154 153 143 135 126 122 125 106 89 56 50 59 59 76 93 89 91 94 92 84 76 69 70 76 90 89 96 97 100 99 94 100 102 96 87 81 78 70
163 158 156 161 161 150 147 149 140 137 145 150 134 125 106 38 29 37 52 92 98 96 94 97 95 91 82 68 58 72 77 81 93 93 102 102 108 107 98 91 86 76 67
173 164 164 161 162 159 162 164 159 153 159 167 152 144 151 181 172 7 34 60 78 92 102 101 104 102 98 86 72 63 59 53 52 90 98 99 104 109 105 100 92 78 67
175 171 167 164 162 163 166 173 170 164 157 163 158 120 133 145 148 156 324 21 57 80 86 106 105 99 100 102 85 74 65 55 49 64 84 86 84 96 104 96 88 78 66
175 175 169 167 167 169 172 171 166 167 164 163 159 143 114 97 112 141 172 205 13 354 94 121 120 109 110 116 105 81 78 67 58 54 53 49 55 70 105 99 87 77 67
180 180 176 174 173 173 177 175 171 171 170 159 154 144 149 153 162 147 158 174 188 248 299 185 159 166 153 133 109 100 100 86 67 58 48 33 34 33 59 111 102 85 64
188 192 189 186 180 180 178 172 172 176 171 166 170 166 162 167 151 144 140 150 166 213 206 284 239 193 170 153 153 115 97 90 78 62 41 24 29 27 35 52 92 97 73
196 190 192 194 190 182 177 170 170 181 175 177 179 172 164 170 155 154 153 149 148 194 225 238 283 205 181 160 145 132 108 80 73 58 34 24 37 49 58 52 48 54 59
189 186 186 190 189 182 176 172 177 182 180 185 187 181 176 180 173 164 154 157 156 178 217 221 216 211 183 155 150 136 134 104 93 70 53 53 59 61 63 54 57 49 60
184 183 185 185 185 182 178 177 179 180 180 188 185 180 184 182 172 163 164 165 158 162 193 207 205 189 168 142 143 133 148 109 98 95 81 78 79 73 66 59 55 52 68
186 186 186 187 185 184 184 181 187 184 186 189 188 187 194 182 179 174 166 163 160 152 176 214 174 152 152 159 152 139 112 108 105 100 94 105 101 85 72 60 43 33 31
192 189 185 187 190 190 188 190 191 191 191 193 193 189 199 186 189 177 173 181 177 170 165 188 188 173 186 178 167 161 150 108 201 113 131 131 131 113 84 53 28 9 359
191 190 188 190 192 193 195 198 193 194 197 199 194 194 199 190 198 186 180 187 184 171 165 168 183 172 187 172 144 129 102 321 315 298 135 178 214 206 280 10 15 13 4
197 192 193 194 192 192 198 199 192 193 200 204 201 198 197 198 200 191 188 190 179 169 162 165 172 174 174 167 158 181 216 228 292 336 300 280 263 262 276 349 19 9 356
205 196 191 194 193 193 196 194 193 196 200 204 205 203 202 202 200 194 189 185 176 173 170 174 180 173 183 179 195 185 200 196 277 257 265 290 288 295 297 292 315 324 335
208 194 192 192 194 200 203 203 200 194 195 201 203 203 199 194 194 194 194 187 184 181 184 182 190 197 208 198 178 179 177 176 237 224 182 267 255 263 275 264 264 278 295
212 197 200 198 197 201 202 203 202 197 192 201 202 195 197 194 183 177 183 185 193 200 194 187 190 200 199 195 177 185 193 194 213 209 168 245 260 259 265 265 261 266 291
212 201 205 207 201 202 200 199 196 194 189 197 199 195 195 193 191 181 170 170 178 198 203 192 190 199 199 187 181 182 178 154 93 317 164 217 254 261 282 282 262 262 283
220 205 208 199 199 205 201 201 194 180 182 191 193 191 190 190 191 181 170 168 170 178 146 154 153 155 163 168 161 142 151 155 206 243 200 184 234 279 282 275 271 275 285
217 210 214 202 196 201 201 198 192 177 175 178 178 186 194 190 184 181 179 173 180 186 157 142 117 99 122 146 160 170 173 175 178 218 206 177 196 242 291 280 281 289 298